"Pseudo-MPEC" for C1G0NK5

Created 2026 Sep 5 10:35:05 UT using Find_Orb

Click here for an explanation of pseudo-MPECs

 
 Astrometry: 
     C1G0NK5*1C2026 09 05.23604122 13 31.613-06 41 10.75   ~9575       VNEOCPV00
     C1G0NK5 1C2026 09 05.24162622 13 16.734-06 43 50.16   ~9575 19.83GVNEOCPV00
     C1G0NK5 1C2026 09 05.24720222 13 01.866-06 46 29.21   ~9575       VNEOCPV00
     C1G0NK5 1C2026 09 05.25277622 12 46.746-06 49 10.38   ~9575       VNEOCPV00
     C1G0NK5 1C2026 09 05.30405822 10 23.128-07 14 27.64   ~957Z 19.83GVNEOCPV00
     C1G0NK5 1C2026 09 05.30441122 10 22.127-07 14 38.29   ~957Z 19.80GVNEOCPV00
     C1G0NK5 1C2026 09 05.30476522 10 21.097-07 14 49.06   ~957Z 19.73GVNEOCPV00
     C1G0NK5 1C2026 09 05.30512022 10 20.082-07 14 59.75   ~957Z 19.75GVNEOCPV00
     C1G0NK5 !C2026 09 05.31119222 10 10.716-07 18 50.62   ~9585 18.8 GWNEOCP673
     C1G0NK5 !C2026 09 05.31355322 10 03.864-07 20 03.34   ~9585 18.7 GWNEOCP673
     C1G0NK5 !C2026 09 05.31566022 09 57.734-07 21 08.10   ~9585 19.5 GWNEOCP673

Station data:
(673) Table Mountain Observatory, Wrightwood  (N34.381485 W117.682170)
   US/California.  Observers J. Chesley, J. Pittichova. Measurer W. M. Owen
   Jr. 0.61-m f/16 reflector + CCD.
(V00) Kitt Peak-Bok  (N31.963125 W111.600190)  US/Arizona. Measurers T.
   Beuden, V. F. Carvajal, D. Fay, J. B. Fazekas, D. C. Fuls, A. R. Gibbs, A.
   D. Grauer, H. Gröller, J. K. Hogan, R. A. Kowalski, S. M. Larson, G. J.
   Leonard, D. Rankin, R. L. Seaman, F. C. Shelly, K. W. Wierzchoś. 2.25-m
   reflector + 4x4K mosaic CCD.

Orbital elements:  C1G0NK5
   Perihelion 2026 Nov 23.815975 +/- 0.766 TT = 19:35:00.2 (JD 2461368.315975)
Epoch 2026 Sep  5.0 TT = JDT 2461288.5   Earth MOID: 0.0007   Ve: 0.0431
M 281.524733555 +/- 1.2             (J2000 ecliptic)             AutoNEOCP
n   0.983202497 +/- 0.00617         Peri.  287.162373 +/- 0.7
a   1.001630177 +/- 0.00419         Node   162.892877 +/- 0.0039
e   0.25763705 +/- 0.0042           Incl.    2.665902 +/- 0.018
P   1.002/366.143d         H 29.96  G  0.15   U  9.3
q 0.743573131 +/- 0.00121    Q 1.259687223 +/- 0.00945
From 11 observations 2026 Sept. 5 (1.9 hr); mean residual 0".27
Residuals in arcseconds: 
260905 V00  .33+  .19+    260905 V00  .06-  .09+    260905 673  .05-  .01+    
260905 V00  .39-  .23-    260905 V00  .21+  .15+    260905 673  .07-  .19-    
260905 V00  .52+  .33+    260905 V00  .10+  .13+    260905 673  .09-  .08-    
260905 V00  .61-  .41-    260905 V00  .26+  .22+    

Ephemerides (geocentric):
Date (UTC) HH   RA             Dec           delta  r     elong  mag " sig PA
---- --------  ------------   ------------  ------ ------ -----  --- --------
2026 09 05 11  22 03 47.911   -08 24 55.43  896389 1.0141 167.1 19.6 21.5  55
2026 09 05 12  22 01 42.728   -08 50 37.92  872070 1.0139 166.5 19.6 35.2  54
2026 09 05 13  21 59 30.064   -09 17 45.88  847871 1.0137 165.8 19.6 53.2  53
2026 09 05 14  21 57 09.252   -09 46 25.92  823804 1.0135 165.1 19.5 76.2  53
2026 09 05 15  21 54 39.547   -10 16 45.23  799879 1.0134 164.4 19.5  105  53
2026 09 05 16  21 52 00.116   -10 48 51.66  776112 1.0132 163.6 19.4  141  52
2026 09 05 17  21 49 10.025   -11 22 53.74  752515 1.0130 162.7 19.4  184  52
2026 09 05 18  21 46 08.220   -11 59 00.77  729107 1.0128 161.8 19.4  236  52
2026 09 05 19  21 42 53.515   -12 37 22.81  705906 1.0126 160.9 19.3  299  52
2026 09 05 20  21 39 24.568   -13 18 10.73  682934 1.0124 159.8 19.3  373  52
2026 09 05 21  21 35 39.859   -14 01 36.23  660215 1.0123 158.7 19.3  462  53
2026 09 05 22  21 31 37.661   -14 47 51.78  637775 1.0121 157.5 19.2  567  53
2026 09 05 23  21 27 16.009   -15 37 10.60  615647 1.0119 156.2 19.2  690  53
2026 09 06 00  21 22 32.664   -16 29 46.47  593864 1.0117 154.8 19.1  835  53
2026 09 06 01  21 17 25.073   -17 25 53.53  572468 1.0115 153.3 19.1 1005  53
2026 09 06 02  21 11 50.316   -18 25 45.90  551503 1.0113 151.6 19.1 1204  54
2026 09 06 03  21 05 45.062   -19 29 37.12  531022 1.0112 149.8 19.0 1435  54
2026 09 06 04  20 59 05.513   -20 37 39.31  511082 1.0110 147.9 19.0 1704  55
2026 09 06 05  20 51 47.345   -21 50 02.05  491751 1.0108 145.9 19.0 2016  55
2026 09 06 06  20 43 45.670   -23 06 50.77  473103 1.0106 143.6 19.0 2375  56
2026 09 06 07  20 34 54.993   -24 28 04.60  455224 1.0104 141.2 18.9 2787  57
2026 09 06 08  20 25 09.223   -25 53 33.65  438209 1.0102 138.6 18.9 3257  58
2026 09 06 09  20 14 21.723   -27 22 55.50  422163 1.0101 135.8 18.9 3788  59
2026 09 06 10  20 02 25.465   -28 55 31.21  407201 1.0099 132.7 18.9 4384  61
2026 09 06 11  19 49 13.327   -30 30 20.83  393448 1.0097 129.5 19.0 5043  62
2026 09 06 12  19 34 38.590   -32 05 59.16  381037 1.0095 126.0 19.0 5762  64
2026 09 06 13  19 18 35.707   -33 40 32.71  370103 1.0093 122.3 19.0 6532  66
2026 09 06 14  19 01 01.369   -35 11 39.21  360782 1.0091 118.3 19.1 7340  69
2026 09 06 15  18 41 55.839   -36 36 31.53  353202 1.0089 114.2 19.2 8165  72
2026 09 06 16  18 21 24.380   -37 52 07.49  347479 1.0088 110.0 19.3 8982  75
2026 09 06 17  17 59 38.434   -38 55 26.08  343705 1.0086 105.6 19.4 9762  78
2026 09 06 18  17 36 56.060   -39 43 48.71  341945 1.0084 101.1 19.5 175'  82
2026 09 06 19  17 13 41.161   -40 15 21.30  342231 1.0082  96.6 19.7 185'  85
2026 09 06 20  16 50 21.356   -40 29 11.70  344557 1.0080  92.2 19.9 193'  89
2026 09 06 21  16 27 24.848   -40 25 36.83  348883 1.0078  87.8 20.1 200'  93
2026 09 06 22  16 05 17.137   -40 05 57.65  355134 1.0076  83.6 20.3 204'  96
2026 09 06 23  15 44 18.464   -39 32 23.52  363211 1.0074  79.5 20.6 206' 100
2026 09 07 00  15 24 42.568   -38 47 31.40  372994 1.0073  75.6 20.8 205' 103
2026 09 07 01  15 06 36.744   -37 54 05.43  384352 1.0071  72.0 21.1 204' 106
2026 09 07 02  14 50 02.822   -36 54 40.80  397148 1.0069  68.5 21.3 200' 108
2026 09 07 03  14 34 58.563   -35 51 33.68  411247 1.0067  65.3 21.6 196' 110
2026 09 07 04  14 21 19.047   -34 46 36.67  426519 1.0065  62.3 21.9 191' 112
2026 09 07 05  14 08 57.852   -33 41 18.27  442842 1.0063  59.6 22?? 186' 114
2026 09 07 06  13 57 47.915   -32 36 44.97  460102 1.0061  57.0 22?? 180' 116
2026 09 07 07  13 47 42.125   -31 33 44.48  478198 1.0060  54.6 22?? 174' 117
2026 09 07 08  13 38 33.679   -30 32 49.27  497037 1.0058  52.4 23?? 168' 118
2026 09 07 09  13 30 16.279   -29 34 19.94  516537 1.0056  50.3 23?? 9706 119
2026 09 07 10  13 22 44.216   -28 38 28.08  536625 1.0054  48.4 23?? 9359 120